Johnstown, PA

11:04 AM EDT on April 29, 2017 (GMT -0400)
Johnstown-Cambria County

Weather History for KJST - November, 2012

Change the Weather History Date:

Friday, November 2, 2012

  Actual Average Record
Temperature  
Mean Temperature 34 °F 45 °F  
Max Temperature 36 °F 52 °F 82 °F (1933)
Min Temperature 30 °F 38 °F 21 °F (1917)
Degree Days  
Heating Degree Days 32 20  
Month to date heating degree days 40  
Since 1 July heating degree days 733  
Cooling Degree Days 0 0  
Month to date cooling degree days 0  
Year to date cooling degree days 382  
Moisture  
Dew Point 30 °F    
Average Humidity 87    
Maximum Humidity 96    
Minimum Humidity 75    
Precipitation  
Precipitation 0.04 in 0.12 in 1.13 in (1920)
Month to date precipitation 0.24  
Year to date precipitation 27.59  
Sea Level Pressure  
Sea Level Pressure 29.78 in    
Wind  
Wind Speed 13 mph (West)    
Max Wind Speed 20 mph    
Max Gust Speed 30 mph    
Visibility 8 miles    
Events Fog , Snow    
T = Trace of Precipitation, MM = Missing Value Source: NWS Daily Summary

Daily Weather History Graph

Daily Weather History Graph

Search for Another Location

Airport or City:

Trip Planner

Search our weather history database for the weather conditions in past years. The results will help you decide how hot, cold, wet, or windy it might be!

Date:

Astronomy

Nov. 02, 2012 Rise Set
Actual Time 7:46 AM EDT 6:10 PM EDT
Civil Twilight 7:18 AM EDT 6:38 PM EDT
Nautical Twilight 6:46 AM EDT 7:11 PM EDT
Astronomical Twilight 6:14 AM EDT 7:42 PM EDT
Moon 8:56 PM EDT (11/2) 11:05 AM EDT (11/2)
Length of Visible Light 11h 20m
Length of Day
10h 23m
Waning Gibbous, 87% of the Moon is Illuminated
Nov 2
Waning Gibbous
Nov 6
Last Quarter
Nov 13
New
Nov 20
First Quarter
Nov 28
Full

Hourly Weather History & Observations

Time (EDT) Temp. Windchill Dew Point Humidity Pressure Visibility Wind Dir Wind Speed Gust Speed Precip Events Conditions
12:08 AM 33.8 °F 25.3 °F 30.2 °F 87% 29.69 in 10.0 mi West 11.5 mph - N/A   Overcast
12:47 AM 33.8 °F 25.8 °F 30.2 °F 87% 29.69 in 10.0 mi West 10.4 mph 18.4 mph N/A   Overcast
12:54 AM 34.0 °F 25.5 °F 30.0 °F 85% 29.75 in 10.0 mi West 11.5 mph - N/A   Overcast
1:16 AM 33.8 °F 25.3 °F 28.4 °F 81% 29.69 in 10.0 mi West 11.5 mph - N/A   Mostly Cloudy
1:54 AM 33.1 °F 24.9 °F 30.0 °F 89% 29.74 in 10.0 mi West 10.4 mph - N/A   Overcast
2:54 AM 34.0 °F 26.0 °F 30.0 °F 85% 29.73 in 10.0 mi West 10.4 mph - N/A   Mostly Cloudy
3:18 AM 33.8 °F 25.8 °F 30.2 °F 87% 29.68 in 10.0 mi West 10.4 mph - N/A   Overcast
3:54 AM 34.0 °F 26.6 °F 30.0 °F 85% 29.73 in 10.0 mi WSW 9.2 mph - N/A   Overcast
4:54 AM 34.0 °F 25.0 °F 30.0 °F 85% 29.72 in 10.0 mi West 12.7 mph - N/A   Overcast
5:36 AM 33.8 °F 25.3 °F 30.2 °F 87% 29.67 in 10.0 mi West 11.5 mph - N/A   Overcast
5:54 AM 33.1 °F 23.9 °F 30.0 °F 89% 29.73 in 10.0 mi West 12.7 mph - N/A   Overcast
6:54 AM 33.1 °F 23.9 °F 30.9 °F 92% 29.74 in 5.0 mi West 12.7 mph - 0.00 in   Overcast
7:02 AM 33.8 °F 25.3 °F 30.2 °F 87% 29.68 in 3.0 mi West 11.5 mph 19.6 mph 0.00 in Snow Light Snow
7:15 AM 32.0 °F 22.1 °F 30.2 °F 93% 29.68 in 2.5 mi West 13.8 mph - 0.00 in Snow Light Snow
7:29 AM 32.0 °F 23.0 °F 30.2 °F 93% 29.69 in 2.0 mi WNW 11.5 mph - 0.00 in Snow Light Snow
7:39 AM 32.0 °F 23.0 °F 30.2 °F 93% 29.70 in 1.5 mi WNW 11.5 mph - 0.00 in Snow Light Snow
7:46 AM 32.0 °F 23.6 °F 30.2 °F 93% 29.70 in 0.8 mi WNW 10.4 mph - 0.00 in Snow Light Snow
7:54 AM 32.0 °F 22.1 °F 30.9 °F 96% 29.77 in 1.0 mi WNW 13.8 mph - 0.00 in Snow Light Snow
8:04 AM 32.0 °F 23.0 °F 30.2 °F 93% 29.71 in 3.0 mi WNW 11.5 mph - 0.00 in Snow Light Snow
8:12 AM 32.0 °F 22.5 °F 30.2 °F 93% 29.71 in 5.0 mi WNW 12.7 mph - 0.00 in Snow Light Snow
8:26 AM 32.0 °F 24.8 °F 30.2 °F 93% 29.71 in 6.0 mi WNW 8.1 mph - 0.00 in   Overcast
8:43 AM 32.0 °F 24.2 °F 30.2 °F 93% 29.71 in 10.0 mi West 9.2 mph - 0.00 in   Overcast
8:54 AM 32.0 °F 24.8 °F 30.0 °F 92% 29.78 in 10.0 mi WNW 8.1 mph 16.1 mph 0.00 in   Overcast
9:28 AM 33.8 °F 26.4 °F 30.2 °F 87% 29.72 in 9.0 mi West 9.2 mph - N/A   Overcast
9:41 AM 33.8 °F 26.4 °F 30.2 °F 87% 29.73 in 10.0 mi West 9.2 mph - N/A   Overcast
9:54 AM 33.1 °F 24.9 °F 30.0 °F 89% 29.79 in 10.0 mi West 10.4 mph - N/A   Overcast
10:13 AM 33.8 °F 27.0 °F 30.2 °F 87% 29.73 in 10.0 mi West 8.1 mph - 0.01 in   Overcast
10:54 AM 33.1 °F 24.4 °F 30.9 °F 92% 29.80 in 10.0 mi West 11.5 mph 17.3 mph 0.02 in   Overcast
11:09 AM 33.8 °F 22.5 °F 30.2 °F 87% 29.74 in 6.0 mi West 19.6 mph 28.8 mph 0.01 in Snow Light Snow
11:24 AM 33.8 °F 23.2 °F 30.2 °F 87% 29.74 in 10.0 mi WNW 17.3 mph 20.7 mph 0.01 in   Overcast
11:46 AM 33.8 °F 23.5 °F 30.2 °F 87% 29.75 in 10.0 mi West 16.1 mph - 0.01 in   Overcast
11:54 AM 35.1 °F 25.5 °F 30.0 °F 82% 29.81 in 10.0 mi West 15.0 mph - 0.01 in   Overcast
12:39 PM 35.6 °F 27.1 °F 28.4 °F 75% 29.74 in 10.0 mi WNW 12.7 mph 24.2 mph N/A   Overcast
12:54 PM 35.1 °F 25.2 °F 28.9 °F 78% 29.80 in 10.0 mi WNW 16.1 mph 25.3 mph N/A   Overcast
1:54 PM 35.1 °F 24.8 °F 28.9 °F 78% 29.81 in 10.0 mi WNW 17.3 mph 24.2 mph 0.00 in   Overcast
2:54 PM 35.1 °F 25.5 °F 28.9 °F 78% 29.82 in 9.0 mi WNW 15.0 mph 23.0 mph 0.00 in   Overcast
3:38 PM 33.8 °F 23.2 °F 30.2 °F 87% 29.78 in 1.5 mi NW 17.3 mph 23.0 mph 0.00 in Snow Light Snow
3:43 PM 32.0 °F 20.1 °F 30.2 °F 93% 29.78 in 0.5 mi NW 19.6 mph 26.5 mph 0.00 in Fog , Snow Snow
3:52 PM 32.0 °F 20.5 °F 30.2 °F 93% 29.78 in 1.0 mi WNW 18.4 mph 27.6 mph 0.00 in Snow Light Snow
3:53 PM 32.0 °F 20.8 °F 30.0 °F 92% 29.85 in 1.2 mi WNW 17.3 mph 27.6 mph 0.00 in Snow Light Snow
3:58 PM 32.0 °F 20.1 °F 30.2 °F 93% 29.79 in 3.0 mi WNW 19.6 mph 27.6 mph 0.00 in Snow Light Snow
4:29 PM 32.0 °F 21.6 °F 30.2 °F 93% 29.80 in 10.0 mi West 15.0 mph 21.9 mph 0.00 in   Overcast
4:54 PM 33.1 °F 23.0 °F 30.0 °F 89% 29.86 in 8.0 mi West 15.0 mph 20.7 mph 0.00 in   Overcast
5:30 PM 33.8 °F 23.5 °F 28.4 °F 81% 29.82 in 10.0 mi West 16.1 mph 26.5 mph 0.01 in   Overcast
5:54 PM 33.1 °F 23.0 °F 28.9 °F 85% 29.89 in 10.0 mi West 15.0 mph 21.9 mph 0.01 in   Overcast
6:29 PM 33.8 °F 23.2 °F 28.4 °F 81% 29.84 in 10.0 mi West 17.3 mph 27.6 mph N/A   Overcast
6:52 PM 33.8 °F 24.8 °F 28.4 °F 81% 29.85 in 10.0 mi West 12.7 mph 29.9 mph N/A   Overcast
6:54 PM 33.1 °F 22.2 °F 28.9 °F 85% 29.91 in 10.0 mi West 17.3 mph 29.9 mph N/A   Overcast
7:50 PM 33.8 °F 23.5 °F 28.4 °F 81% 29.87 in 10.0 mi WNW 16.1 mph 25.3 mph N/A   Overcast
7:54 PM 33.1 °F 22.6 °F 28.9 °F 85% 29.93 in 10.0 mi WNW 16.1 mph 25.3 mph N/A   Overcast
8:23 PM 32.0 °F 22.1 °F 28.4 °F 87% 29.87 in 10.0 mi West 13.8 mph 23.0 mph N/A   Overcast
8:34 PM 32.0 °F 21.6 °F 28.4 °F 87% 29.87 in 10.0 mi West 15.0 mph 26.5 mph N/A   Overcast
8:54 PM 32.0 °F 22.1 °F 28.0 °F 85% 29.94 in 10.0 mi West 13.8 mph 25.3 mph N/A   Overcast
9:19 PM 32.0 °F 22.1 °F 28.4 °F 87% 29.88 in 10.0 mi West 13.8 mph 24.2 mph N/A   Overcast
9:54 PM 32.0 °F 21.6 °F 28.0 °F 85% 29.95 in 10.0 mi West 15.0 mph 23.0 mph N/A   Overcast
10:54 PM 32.0 °F 23.0 °F 28.0 °F 85% 29.95 in 10.0 mi West 11.5 mph - N/A   Overcast
11:54 PM 30.9 °F 19.4 °F 28.0 °F 89% 29.96 in 10.0 mi WNW 17.3 mph 23.0 mph N/A   Overcast